Cambridge, MD

3:50 AM EST on February 19, 2018 (GMT -0500)
Cambridge-Dorchester

Weather History for KCGE - October, 2013

Change the Weather History Date:

Monday, October 21, 2013

  Actual Average (KESN) Record (KESN)
Temperature  
Mean Temperature 52 °F -  
Max Temperature 66 °F 67 °F 82 °F (1963)
Min Temperature 37 °F 44 °F 25 °F (1972)
Degree Days  
Heating Degree Days 14    
Growing Degree Days 2 (Base 50)    
Moisture  
Dew Point 43 °F    
Average Humidity 74    
Maximum Humidity 93    
Minimum Humidity 40    
Precipitation  
Precipitation 0.00 in - - ()
Sea Level Pressure  
Sea Level Pressure 30.10 in    
Wind  
Wind Speed 2 mph (South)    
Max Wind Speed 10 mph    
Max Gust Speed -    
Visibility 10 miles    
Events      
Averages and records for this station are not official NWS values.
T = Trace of Precipitation, MM = Missing Value Source: NWS Daily Summary

Daily Weather History Graph

Daily Weather History Graph

Search for Another Location

Airport or City:

Trip Planner

Search our weather history database for the weather conditions in past years. The results will help you decide how hot, cold, wet, or windy it might be!

Date:

Astronomy

Oct. 21, 2013 Rise Set
Actual Time 7:19 AM EDT 6:17 PM EDT
Civil Twilight 6:52 AM EDT 6:44 PM EDT
Nautical Twilight 6:21 AM EDT 7:15 PM EDT
Astronomical Twilight 5:50 AM EDT 7:45 PM EDT
Moon 8:10 PM EDT (10/21) 9:50 AM EDT (10/21)
Length of Visible Light 11h 51m
Length of Day
10h 57m
Waning Gibbous, 93% of the Moon is Illuminated
Oct 21
Waning Gibbous
Oct 26
Last Quarter
Nov 3
New
Nov 10
First Quarter
Nov 17
Full

Hourly Weather History & Observations

Time (EDT) Temp. Windchill Dew Point Humidity Pressure Visibility Wind Dir Wind Speed Gust Speed Precip Events Conditions
12:19 AM 41.0 °F 39.0 °F 39.2 °F 93% 30.11 in 10.0 mi SSE 3.5 mph - N/A   Clear
12:39 AM 41.0 °F - 39.2 °F 93% 30.11 in 10.0 mi Calm Calm - N/A   Clear
12:59 AM 41.0 °F - 39.2 °F 93% 30.12 in 10.0 mi Calm Calm - N/A   Clear
1:19 AM 41.0 °F - 39.2 °F 93% 30.12 in 10.0 mi Calm Calm - N/A   Clear
1:39 AM 41.0 °F - 39.2 °F 93% 30.12 in 10.0 mi Calm Calm - N/A   Clear
1:59 AM 41.0 °F - 39.2 °F 93% 30.12 in 10.0 mi Calm Calm - N/A   Clear
2:19 AM 41.0 °F - 39.2 °F 93% 30.12 in 10.0 mi Calm Calm - N/A   Clear
2:39 AM 41.0 °F - 39.2 °F 93% 30.12 in 10.0 mi Calm Calm - N/A   Clear
2:59 AM 41.0 °F - 37.4 °F 87% 30.12 in 10.0 mi Calm Calm - N/A   Clear
3:19 AM 41.0 °F - 37.4 °F 87% 30.12 in 10.0 mi Calm Calm - N/A   Clear
3:39 AM 41.0 °F - 37.4 °F 87% 30.12 in 10.0 mi Calm Calm - N/A   Clear
3:59 AM 41.0 °F - 37.4 °F 87% 30.12 in 10.0 mi Calm Calm - N/A   Clear
4:19 AM 41.0 °F - 37.4 °F 87% 30.12 in 10.0 mi Calm Calm - N/A   Clear
4:39 AM 41.0 °F - 37.4 °F 87% 30.12 in 10.0 mi Calm Calm - N/A   Clear
4:59 AM 41.0 °F - 37.4 °F 87% 30.13 in 10.0 mi Calm Calm - N/A   Clear
5:19 AM 41.0 °F - 37.4 °F 87% 30.13 in 10.0 mi Calm Calm - N/A   Clear
5:39 AM 41.0 °F - 37.4 °F 87% 30.14 in 10.0 mi Calm Calm - N/A   Clear
5:59 AM 39.2 °F 37.0 °F 37.4 °F 93% 30.14 in 10.0 mi SSE 3.5 mph - N/A   Clear
6:19 AM 39.2 °F 37.0 °F 37.4 °F 93% 30.15 in 10.0 mi SSE 3.5 mph - N/A   Clear
6:39 AM 41.0 °F - 37.4 °F 87% 30.15 in 10.0 mi Calm Calm - N/A   Clear
6:59 AM 37.4 °F - 35.6 °F 93% 30.15 in 10.0 mi Calm Calm - N/A   Clear
7:19 AM 37.4 °F 34.9 °F 35.6 °F 93% 30.15 in 10.0 mi SSE 3.5 mph - N/A   Clear
7:39 AM 41.0 °F 39.0 °F 37.4 °F 87% 30.15 in 10.0 mi SE 3.5 mph - N/A   Clear
7:59 AM 41.0 °F - 37.4 °F 87% 30.16 in 10.0 mi Calm Calm - N/A   Clear
8:19 AM 42.8 °F - 41.0 °F 93% 30.16 in 10.0 mi Calm Calm - N/A   Clear
8:39 AM 46.4 °F - 44.6 °F 93% 30.17 in 10.0 mi Calm Calm - N/A   Clear
8:59 AM 50.0 °F - 46.4 °F 87% 30.17 in 10.0 mi Calm Calm - N/A   Clear
9:20 AM 53.6 °F - 50.0 °F 88% 30.16 in 10.0 mi Calm Calm - N/A   Clear
9:40 AM 55.4 °F - 50.0 °F 82% 30.16 in 10.0 mi Calm Calm - N/A   Clear
10:00 AM 59.0 °F - 50.0 °F 72% 30.16 in 10.0 mi Calm Calm - N/A   Clear
10:20 AM 60.8 °F - 48.2 °F 63% 30.15 in 10.0 mi Calm Calm - N/A   Clear
10:40 AM 60.8 °F - 46.4 °F 59% 30.15 in 10.0 mi Calm Calm - N/A   Clear
11:00 AM 60.8 °F - 44.6 °F 55% 30.15 in 10.0 mi Calm Calm - N/A   Clear
11:20 AM 62.6 °F - 42.8 °F 48% 30.15 in 10.0 mi South 3.5 mph - N/A   Clear
11:40 AM 62.6 °F - 42.8 °F 48% 30.14 in 10.0 mi SSW 3.5 mph - N/A   Clear
12:00 PM 62.6 °F - 42.8 °F 48% 30.14 in 10.0 mi Calm Calm - N/A   Clear
12:20 PM 64.4 °F - 42.8 °F 45% 30.13 in 7.0 mi SE 6.9 mph - N/A   Clear
12:40 PM 64.4 °F - 39.2 °F 40% 30.13 in 10.0 mi SSW 4.6 mph - N/A   Clear
1:00 PM 64.4 °F - 39.2 °F 40% 30.12 in 10.0 mi South 6.9 mph - N/A   Clear
1:20 PM 64.4 °F - 41.0 °F 42% 30.11 in 10.0 mi South 4.6 mph - N/A   Clear
1:40 PM 66.2 °F - 41.0 °F 40% 30.10 in 10.0 mi SSW 5.8 mph - N/A   Clear
2:00 PM 64.4 °F - 41.0 °F 42% 30.09 in 10.0 mi South 9.2 mph - N/A   Clear
2:20 PM 64.4 °F - 42.8 °F 45% 30.09 in 10.0 mi South 8.1 mph - N/A   Clear
2:40 PM 64.4 °F - 42.8 °F 45% 30.08 in 10.0 mi SSE 5.8 mph - N/A   Clear
3:00 PM 66.2 °F - 42.8 °F 43% 30.08 in 10.0 mi South 10.4 mph - N/A   Clear
3:20 PM 64.4 °F - 42.8 °F 45% 30.07 in 10.0 mi South 8.1 mph - N/A   Clear
3:40 PM 64.4 °F - 44.6 °F 49% 30.06 in 10.0 mi South 6.9 mph - N/A   Clear
4:00 PM 64.4 °F - 44.6 °F 49% 30.05 in 10.0 mi South 9.2 mph - N/A   Clear
4:20 PM 64.4 °F - 44.6 °F 49% 30.05 in 10.0 mi SSW 8.1 mph - N/A   Clear
4:40 PM 62.6 °F - 44.6 °F 52% 30.05 in 10.0 mi South 6.9 mph - N/A   Clear
5:00 PM 60.8 °F - 44.6 °F 55% 30.05 in 10.0 mi South 6.9 mph - N/A   Clear
5:20 PM 60.8 °F - 44.6 °F 55% 30.05 in 10.0 mi SSW 5.8 mph - N/A   Clear
5:41 PM 60.8 °F - 46.4 °F 59% 30.05 in 10.0 mi SSW 5.8 mph - N/A   Clear
6:01 PM 60.8 °F - 46.4 °F 59% 30.05 in 10.0 mi South 4.6 mph - N/A   Clear
6:21 PM 59.0 °F - 46.4 °F 63% 30.05 in 10.0 mi South 4.6 mph - N/A   Clear
6:41 PM 59.0 °F - 46.4 °F 63% 30.05 in 10.0 mi South 3.5 mph - N/A   Clear
7:01 PM 55.4 °F - 46.4 °F 72% 30.05 in 10.0 mi South 3.5 mph - N/A   Clear
7:21 PM 55.4 °F - 46.4 °F 72% 30.04 in 10.0 mi SE 3.5 mph - N/A   Clear
7:41 PM 53.6 °F - 46.4 °F 77% 30.04 in 10.0 mi Calm Calm - N/A   Clear
8:01 PM 51.8 °F - 46.4 °F 82% 30.04 in 10.0 mi Calm Calm - N/A   Clear
8:21 PM 51.8 °F - 46.4 °F 82% 30.04 in 10.0 mi Calm Calm - N/A   Clear
8:41 PM 50.0 °F - 46.4 °F 87% 30.04 in 10.0 mi Calm Calm - N/A   Clear
9:01 PM 50.0 °F - 46.4 °F 87% 30.03 in 10.0 mi Calm Calm - N/A   Clear
9:21 PM 50.0 °F - 46.4 °F 87% 30.03 in 10.0 mi Calm Calm - N/A   Clear
9:41 PM 50.0 °F - 46.4 °F 87% 30.02 in 10.0 mi SE 3.5 mph - N/A   Clear
10:01 PM 50.0 °F - 46.4 °F 87% 30.02 in 10.0 mi Calm Calm - N/A   Clear
10:21 PM 51.8 °F - 46.4 °F 82% 30.02 in 10.0 mi Calm Calm - N/A   Clear
10:41 PM 51.8 °F - 48.2 °F 88% 30.01 in 10.0 mi Calm Calm - N/A   Clear
11:01 PM 51.8 °F - 46.4 °F 82% 30.01 in 10.0 mi Calm Calm - N/A   Clear
11:21 PM 51.8 °F - 48.2 °F 88% 30.01 in 10.0 mi Calm Calm - N/A   Clear
11:41 PM 50.0 °F - 46.4 °F 87% 30.00 in 10.0 mi SSE 3.5 mph - N/A   Clear